Timestamp,UTC,Callsign,Position,Altitude,Speed,Direction
1505068447,2017-09-10T18:34:07Z,UAE131,"55.404533,37.895683",0,15,326
1505068441,2017-09-10T18:34:01Z,UAE131,"55.404167,37.896126",0,33,326
1505068435,2017-09-10T18:33:55Z,UAE131,"55.403831,37.896526",0,32,326
1505068429,2017-09-10T18:33:49Z,UAE131,"55.403469,37.896954",0,30,326
1505068402,2017-09-10T18:33:22Z,UAE131,"55.402279,37.898308",0,24,326
1505068390,2017-09-10T18:33:10Z,UAE131,"55.401798,37.898811",0,21,326
1505068381,2017-09-10T18:33:01Z,UAE131,"55.401596,37.899044",0,20,326
1505068375,2017-09-10T18:32:55Z,UAE131,"55.401455,37.899258",0,18,331
1505068360,2017-09-10T18:32:40Z,UAE131,"55.401154,37.89967",0,13,357
1505068348,2017-09-10T18:32:28Z,UAE131,"55.400909,37.899876",0,17,36
1505068339,2017-09-10T18:32:19Z,UAE131,"55.400574,37.899586",0,21,90
1505068261,2017-09-10T18:31:01Z,UAE131,"55.419601,37.873951",525,137,145
1505068252,2017-09-10T18:30:52Z,UAE131,"55.424286,37.86834",650,135,145
1505068216,2017-09-10T18:30:16Z,UAE131,"55.442001,37.847012",1075,130,145
1505068194,2017-09-10T18:29:54Z,UAE131,"55.453995,37.832668",39700,132,145
1505068185,2017-09-10T18:29:45Z,UAE131,"55.457588,37.828159",1425,132,146
1505068178,2017-09-10T18:29:38Z,UAE131,"55.462242,37.822578",1525,133,145
1505068169,2017-09-10T18:29:29Z,UAE131,"55.465118,37.819103",1600,133,145
1505068158,2017-09-10T18:29:18Z,UAE131,"55.47039,37.812798",1725,133,145
1505068149,2017-09-10T18:29:09Z,UAE131,"55.475464,37.806618",1825,134,145
1505068138,2017-09-10T18:28:58Z,UAE131,"55.480591,37.800461",1925,135,145
1505068123,2017-09-10T18:28:43Z,UAE131,"55.488407,37.789619",2125,137,145
1505068114,2017-09-10T18:28:34Z,UAE131,"55.493774,37.784481",2250,137,145
1505068108,2017-09-10T18:28:28Z,UAE131,"55.497894,37.779152",2325,137,145
1505068098,2017-09-10T18:28:18Z,UAE131,"55.501488,37.7752",2425,137,146
1505068089,2017-09-10T18:28:09Z,UAE131,"55.506653,37.769279",2525,136,147
1505068068,2017-09-10T18:27:48Z,UAE131,"55.51862,37.755287",2800,140,4
1505068058,2017-09-10T18:27:38Z,UAE131,"55.522934,37.750687",2875,141,151
1505068038,2017-09-10T18:27:18Z,UAE131,"55.535568,37.74453",3150,137,180
1505068032,2017-09-10T18:27:12Z,UAE131,"55.539101,37.744732",3150,135,184
1505068026,2017-09-10T18:27:06Z,UAE131,"55.542984,37.745193",3150,136,182
1505068020,2017-09-10T18:27:00Z,UAE131,"55.546829,37.745506",3150,136,181
1505068014,2017-09-10T18:26:54Z,UAE131,"55.550644,37.745762",3150,136,186
1505068008,2017-09-10T18:26:48Z,UAE131,"55.554649,37.747566",3125,135,204
1505068002,2017-09-10T18:26:42Z,UAE131,"55.557358,37.750771",3150,135,224
1505067996,2017-09-10T18:26:36Z,UAE131,"55.559677,37.756062",3150,135,239
1505067990,2017-09-10T18:26:30Z,UAE131,"55.561432,37.761673",3200,136,241
1505067984,2017-09-10T18:26:24Z,UAE131,"55.563213,37.767479",3225,135,241
1505067978,2017-09-10T18:26:18Z,UAE131,"55.565125,37.773743",3250,133,241
1505067972,2017-09-10T18:26:12Z,UAE131,"55.566845,37.77932",3250,132,241
1505067966,2017-09-10T18:26:06Z,UAE131,"55.568523,37.784901",3225,132,241
1505067960,2017-09-10T18:26:00Z,UAE131,"55.57029,37.790565",3225,135,241
1505067954,2017-09-10T18:25:54Z,UAE131,"55.572151,37.796574",3225,138,241
1505067948,2017-09-10T18:25:48Z,UAE131,"55.573975,37.80254",3225,144,241
1505067942,2017-09-10T18:25:42Z,UAE131,"55.575897,37.808865",3225,153,241
1505067936,2017-09-10T18:25:36Z,UAE131,"55.578003,37.815609",3250,159,241
1505067930,2017-09-10T18:25:30Z,UAE131,"55.580292,37.823013",3250,164,241
1505067924,2017-09-10T18:25:24Z,UAE131,"55.582439,37.829964",3225,167,241
1505067918,2017-09-10T18:25:18Z,UAE131,"55.584629,37.836914",3225,173,241
1505067912,2017-09-10T18:25:12Z,UAE131,"55.587067,37.844906",3250,179,241
1505067906,2017-09-10T18:25:06Z,UAE131,"55.589401,37.852478",3250,186,241
1505067900,2017-09-10T18:25:00Z,UAE131,"55.591827,37.86055",3250,191,241
1505067894,2017-09-10T18:24:54Z,UAE131,"55.594528,37.869373",3250,196,241
1505067888,2017-09-10T18:24:48Z,UAE131,"55.597012,37.87751",3250,197,241
1505067882,2017-09-10T18:24:42Z,UAE131,"55.599792,37.88652",3250,198,241
1505067873,2017-09-10T18:24:33Z,UAE131,"55.603546,37.898922",3250,198,242
1505067853,2017-09-10T18:24:13Z,UAE131,"55.608627,37.929214",3250,205,272
1505067845,2017-09-10T18:24:05Z,UAE131,"55.606155,37.94553",3250,216,297
1505067835,2017-09-10T18:23:55Z,UAE131,"55.601852,37.958023",3250,218,304
1505067829,2017-09-10T18:23:49Z,UAE131,"55.598145,37.967667",3250,218,304
1505067823,2017-09-10T18:23:43Z,UAE131,"55.595078,37.975658",3250,217,304
1505067817,2017-09-10T18:23:37Z,UAE131,"55.59166,37.984459",3250,218,304
1505067811,2017-09-10T18:23:31Z,UAE131,"55.588028,37.994072",3250,219,304
1505067805,2017-09-10T18:23:25Z,UAE131,"55.584721,38.002739",3250,219,303
1505067799,2017-09-10T18:23:19Z,UAE131,"55.58139,38.011532",3250,219,303
1505067793,2017-09-10T18:23:13Z,UAE131,"55.577774,38.021019",3250,219,303
1505067785,2017-09-10T18:23:05Z,UAE131,"55.572849,38.034065",3250,218,303
1505067778,2017-09-10T18:22:58Z,UAE131,"55.569489,38.042992",3250,218,303
1505067772,2017-09-10T18:22:52Z,UAE131,"55.566288,38.051407",3250,218,303
1505067766,2017-09-10T18:22:46Z,UAE131,"55.562805,38.060719",3250,218,303
1505067760,2017-09-10T18:22:40Z,UAE131,"55.559536,38.069344",3250,218,304
1505067754,2017-09-10T18:22:34Z,UAE131,"55.555756,38.078365",3250,218,308
1505067748,2017-09-10T18:22:28Z,UAE131,"55.551437,38.086594",3250,220,318
1505067725,2017-09-10T18:22:05Z,UAE131,"55.529663,38.099339",3250,230,8
1505067719,2017-09-10T18:21:59Z,UAE131,"55.523346,38.096924",3250,231,17
1505067713,2017-09-10T18:21:53Z,UAE131,"55.517578,38.09351",3250,231,18
1505067707,2017-09-10T18:21:47Z,UAE131,"55.511536,38.090267",3250,231,12
1505067689,2017-09-10T18:21:29Z,UAE131,"55.492538,38.089684",3275,229,1
1505067683,2017-09-10T18:21:23Z,UAE131,"55.485985,38.088486",3275,228,13
1505067677,2017-09-10T18:21:17Z,UAE131,"55.480118,38.085136",3275,227,24
1505067671,2017-09-10T18:21:11Z,UAE131,"55.474907,38.079559",3275,225,38
1505067665,2017-09-10T18:21:05Z,UAE131,"55.470249,38.071404",3250,222,52
1505067659,2017-09-10T18:20:59Z,UAE131,"55.467037,38.062305",3225,222,66
1505067653,2017-09-10T18:20:53Z,UAE131,"55.464989,38.051834",3200,223,75
1505067645,2017-09-10T18:20:45Z,UAE131,"55.462921,38.035336",3125,223,77
1505067638,2017-09-10T18:20:38Z,UAE131,"55.461639,38.025227",2975,219,77
1505067632,2017-09-10T18:20:32Z,UAE131,"55.460312,38.015274",2800,216,77
1505067626,2017-09-10T18:20:26Z,UAE131,"55.458984,38.004955",2650,212,77
1505067620,2017-09-10T18:20:20Z,UAE131,"55.457703,37.995052",2575,206,77
1505067613,2017-09-10T18:20:13Z,UAE131,"55.456512,37.985229",2550,206,78
1505067605,2017-09-10T18:20:05Z,UAE131,"55.454773,37.970581",2550,205,77
1505067598,2017-09-10T18:19:58Z,UAE131,"55.4534,37.959927",2575,203,77
1505067590,2017-09-10T18:19:50Z,UAE131,"55.451584,37.945919",2575,197,76
1505067583,2017-09-10T18:19:43Z,UAE131,"55.450287,37.936539",2575,189,76
1505067577,2017-09-10T18:19:37Z,UAE131,"55.44907,37.927551",2575,183,76
1505067568,2017-09-10T18:19:28Z,UAE131,"55.4473,37.91502",2575,173,75
1505067559,2017-09-10T18:19:19Z,UAE131,"55.445572,37.902748",2575,168,76
1505067553,2017-09-10T18:19:13Z,UAE131,"55.444565,37.89526",2575,167,76
1505067529,2017-09-10T18:18:49Z,UAE131,"55.442001,37.863815",2550,153,100
1505067521,2017-09-10T18:18:41Z,UAE131,"55.444519,37.853561",2550,142,129
1505067514,2017-09-10T18:18:34Z,UAE131,"55.447208,37.848587",2550,139,137
1505067505,2017-09-10T18:18:25Z,UAE131,"55.451534,37.841805",2550,139,138
1505067499,2017-09-10T18:18:19Z,UAE131,"55.454514,37.837257",2550,139,139
1505067493,2017-09-10T18:18:13Z,UAE131,"55.457447,37.832966",2550,139,141
1505067487,2017-09-10T18:18:07Z,UAE131,"55.460541,37.828842",2550,137,145
1505067478,2017-09-10T18:17:58Z,UAE131,"55.465317,37.823952",2550,136,151
1505067472,2017-09-10T18:17:52Z,UAE131,"55.46862,37.820694",2550,137,148
1505067466,2017-09-10T18:17:46Z,UAE131,"55.472019,37.816574",2550,140,143
1505067460,2017-09-10T18:17:40Z,UAE131,"55.47496,37.812695",2550,138,144
1505067454,2017-09-10T18:17:34Z,UAE131,"55.478352,37.808762",2550,138,147
1505067448,2017-09-10T18:17:28Z,UAE131,"55.481323,37.805538",2550,137,148
1505067436,2017-09-10T18:17:16Z,UAE131,"55.487659,37.797516",2550,141,140
1505067430,2017-09-10T18:17:10Z,UAE131,"55.490639,37.793228",2550,140,140
1505067421,2017-09-10T18:17:01Z,UAE131,"55.495331,37.786728",2550,139,142
1505067415,2017-09-10T18:16:55Z,UAE131,"55.498398,37.78273",2550,138,144
1505067409,2017-09-10T18:16:49Z,UAE131,"55.501511,37.778904",2550,136,145
1505067403,2017-09-10T18:16:43Z,UAE131,"55.504654,37.775032",2525,137,142
1505067397,2017-09-10T18:16:37Z,UAE131,"55.507507,37.77058",2525,140,134
1505067391,2017-09-10T18:16:31Z,UAE131,"55.51033,37.764988",2575,142,128
1505067385,2017-09-10T18:16:25Z,UAE131,"55.51268,37.759842",2650,141,132
1505067379,2017-09-10T18:16:19Z,UAE131,"55.51561,37.755184",2750,136,145
1505067373,2017-09-10T18:16:13Z,UAE131,"55.518944,37.751942",2825,135,157
1505067367,2017-09-10T18:16:07Z,UAE131,"55.52248,37.749794",2900,134,162
1505067361,2017-09-10T18:16:01Z,UAE131,"55.525909,37.747692",2975,136,157
1505067352,2017-09-10T18:15:52Z,UAE131,"55.531185,37.741814",3050,143,136
1505067346,2017-09-10T18:15:46Z,UAE131,"55.533607,37.73735",3075,147,128
1505067340,2017-09-10T18:15:40Z,UAE131,"55.536121,37.731255",3125,150,124
1505067334,2017-09-10T18:15:34Z,UAE131,"55.538589,37.725304",3200,149,129
1505067325,2017-09-10T18:15:25Z,UAE131,"55.543011,37.718727",3225,141,155
1505067319,2017-09-10T18:15:19Z,UAE131,"55.546692,37.71698",3250,138,177
1505067313,2017-09-10T18:15:13Z,UAE131,"55.550739,37.717438",3250,136,187
1505067307,2017-09-10T18:15:07Z,UAE131,"55.554337,37.718311",3250,136,187
1505067301,2017-09-10T18:15:01Z,UAE131,"55.558372,37.719238",3250,136,187
1505067295,2017-09-10T18:14:55Z,UAE131,"55.561981,37.720058",3250,136,188
1505067289,2017-09-10T18:14:49Z,UAE131,"55.565681,37.72113",3250,135,190
1505067283,2017-09-10T18:14:43Z,UAE131,"55.569313,37.722588",3250,135,195
1505067274,2017-09-10T18:14:34Z,UAE131,"55.574661,37.725719",3250,135,201
1505067268,2017-09-10T18:14:28Z,UAE131,"55.578018,37.72834",3250,135,209
1505067262,2017-09-10T18:14:22Z,UAE131,"55.581276,37.732285",3250,135,221
1505067256,2017-09-10T18:14:16Z,UAE131,"55.583679,37.73679",3250,134,230
1505067250,2017-09-10T18:14:10Z,UAE131,"55.586117,37.741985",3250,135,231
1505067244,2017-09-10T18:14:04Z,UAE131,"55.588531,37.747276",3250,135,231
1505067232,2017-09-10T18:13:52Z,UAE131,"55.593201,37.757431",3250,138,231
1505067226,2017-09-10T18:13:46Z,UAE131,"55.595535,37.762589",3250,140,230
1505067220,2017-09-10T18:13:40Z,UAE131,"55.597988,37.767822",3250,142,230
1505067214,2017-09-10T18:13:34Z,UAE131,"55.600571,37.773495",3250,146,230
1505067206,2017-09-10T18:13:26Z,UAE131,"55.604828,37.78273",3225,155,230
1505067187,2017-09-10T18:13:07Z,UAE131,"55.615726,37.80447",3225,165,221
1505067181,2017-09-10T18:13:01Z,UAE131,"55.616749,37.806099",3225,165,221
1505067171,2017-09-10T18:12:51Z,UAE131,"55.622242,37.81451",3250,172,221
1505067165,2017-09-10T18:12:45Z,UAE131,"55.627502,37.822407",3250,174,221
1505067159,2017-09-10T18:12:39Z,UAE131,"55.633274,37.831333",3275,176,223
1505067153,2017-09-10T18:12:33Z,UAE131,"55.634903,37.834",3275,177,230
1505067147,2017-09-10T18:12:27Z,UAE131,"55.638069,37.839745",3275,177,239
1505067127,2017-09-10T18:12:07Z,UAE131,"55.643284,37.863007",3250,181,271
1505067121,2017-09-10T18:12:01Z,UAE131,"55.642399,37.871761",3250,183,289
1505067115,2017-09-10T18:11:55Z,UAE131,"55.639801,37.880611",3225,186,308
1505067106,2017-09-10T18:11:46Z,UAE131,"55.634346,37.889702",3250,191,323
1505067100,2017-09-10T18:11:40Z,UAE131,"55.630203,37.894936",3250,191,325
1505067094,2017-09-10T18:11:34Z,UAE131,"55.625748,37.900333",3250,191,325
1505067088,2017-09-10T18:11:28Z,UAE131,"55.621307,37.905746",3250,193,325
1505067079,2017-09-10T18:11:19Z,UAE131,"55.61475,37.913818",3250,193,325
1505067073,2017-09-10T18:11:13Z,UAE131,"55.610229,37.919312",3250,192,325
1505067065,2017-09-10T18:11:05Z,UAE131,"55.604004,37.927052",3250,193,324
1505067058,2017-09-10T18:10:58Z,UAE131,"55.599525,37.932617",3250,193,324
1505067049,2017-09-10T18:10:49Z,UAE131,"55.59288,37.940868",3250,192,324
1505067043,2017-09-10T18:10:43Z,UAE131,"55.588448,37.946434",3250,192,324
1505067037,2017-09-10T18:10:37Z,UAE131,"55.584274,37.951603",3250,190,324
1505067031,2017-09-10T18:10:31Z,UAE131,"55.579834,37.957096",3250,190,324
1505067025,2017-09-10T18:10:25Z,UAE131,"55.575459,37.96257",3250,190,324
1505067019,2017-09-10T18:10:19Z,UAE131,"55.571411,37.967667",3250,190,324
1505067010,2017-09-10T18:10:10Z,UAE131,"55.564636,37.97599",3250,193,324
1505067004,2017-09-10T18:10:04Z,UAE131,"55.560421,37.981281",3250,197,324
1505066997,2017-09-10T18:09:57Z,UAE131,"55.555954,37.986862",3250,203,324
1505066989,2017-09-10T18:09:49Z,UAE131,"55.548923,37.995701",3250,210,324
1505066983,2017-09-10T18:09:43Z,UAE131,"55.54343,38.002567",3250,212,324
1505066973,2017-09-10T18:09:33Z,UAE131,"55.536678,38.01115",3250,212,324
1505066967,2017-09-10T18:09:27Z,UAE131,"55.531952,38.017105",3250,212,324
1505066961,2017-09-10T18:09:21Z,UAE131,"55.527191,38.023182",3250,212,324
1505066955,2017-09-10T18:09:15Z,UAE131,"55.521923,38.029778",3250,212,324
1505066949,2017-09-10T18:09:09Z,UAE131,"55.517715,38.035168",3250,212,324
1505066943,2017-09-10T18:09:03Z,UAE131,"55.512817,38.041325",3250,212,324
1505066937,2017-09-10T18:08:57Z,UAE131,"55.508003,38.047543",3250,212,324
1505066931,2017-09-10T18:08:51Z,UAE131,"55.503254,38.053551",3250,212,324
1505066925,2017-09-10T18:08:45Z,UAE131,"55.498077,38.060135",3250,212,323
1505066919,2017-09-10T18:08:39Z,UAE131,"55.493179,38.06638",3250,213,324
1505066913,2017-09-10T18:08:33Z,UAE131,"55.488918,38.071831",3250,213,324
1505066907,2017-09-10T18:08:27Z,UAE131,"55.484161,38.077866",3250,213,324
1505066901,2017-09-10T18:08:21Z,UAE131,"55.478443,38.08522",3250,212,323
1505066893,2017-09-10T18:08:13Z,UAE131,"55.471985,38.093346",3250,213,324
1505066886,2017-09-10T18:08:06Z,UAE131,"55.467361,38.099339",3250,213,324
1505066877,2017-09-10T18:07:57Z,UAE131,"55.459915,38.108742",3250,212,324
1505066871,2017-09-10T18:07:51Z,UAE131,"55.455399,38.114403",3250,212,324
1505066865,2017-09-10T18:07:45Z,UAE131,"55.45047,38.120644",3250,212,324
1505066859,2017-09-10T18:07:39Z,UAE131,"55.445625,38.126678",3250,212,324
1505066853,2017-09-10T18:07:33Z,UAE131,"55.440781,38.132797",3250,213,324
1505066847,2017-09-10T18:07:27Z,UAE131,"55.436127,38.138538",3250,213,324
1505066841,2017-09-10T18:07:21Z,UAE131,"55.431007,38.144947",3250,213,324
1505066833,2017-09-10T18:07:13Z,UAE131,"55.423885,38.15377",3250,213,324
1505066823,2017-09-10T18:07:03Z,UAE131,"55.416481,38.162926",3250,215,324
1505066817,2017-09-10T18:06:57Z,UAE131,"55.411789,38.168686",3250,215,324
1505066811,2017-09-10T18:06:51Z,UAE131,"55.406204,38.175713",3225,218,324
1505066805,2017-09-10T18:06:45Z,UAE131,"55.401772,38.181236",3225,220,324
1505066799,2017-09-10T18:06:39Z,UAE131,"55.396729,38.187508",3225,225,324
1505066793,2017-09-10T18:06:33Z,UAE131,"55.391785,38.193726",3250,230,324
1505066787,2017-09-10T18:06:27Z,UAE131,"55.386642,38.200211",3250,234,324
1505066781,2017-09-10T18:06:21Z,UAE131,"55.381104,38.207203",3250,236,323
1505066775,2017-09-10T18:06:15Z,UAE131,"55.375656,38.214195",3275,236,323
1505066769,2017-09-10T18:06:09Z,UAE131,"55.370316,38.221031",3325,237,323
1505066761,2017-09-10T18:06:01Z,UAE131,"55.362534,38.231049",3400,236,323
1505066754,2017-09-10T18:05:54Z,UAE131,"55.357452,38.237591",3450,236,323
1505066748,2017-09-10T18:05:48Z,UAE131,"55.351959,38.244621",3500,236,323
1505066742,2017-09-10T18:05:42Z,UAE131,"55.346512,38.251568",3525,235,324
1505066736,2017-09-10T18:05:36Z,UAE131,"55.341385,38.25795",3550,235,325
1505066730,2017-09-10T18:05:30Z,UAE131,"55.335938,38.264332",3550,236,327
1505066721,2017-09-10T18:05:21Z,UAE131,"55.327332,38.273701",3550,236,328
1505066715,2017-09-10T18:05:15Z,UAE131,"55.321842,38.279446",3550,236,330
1505066691,2017-09-10T18:04:51Z,UAE131,"55.296238,38.289852",3550,243,8
1505066685,2017-09-10T18:04:45Z,UAE131,"55.288418,38.287186",3550,244,12
1505066679,2017-09-10T18:04:39Z,UAE131,"55.282928,38.285091",3550,244,12
1505066673,2017-09-10T18:04:33Z,UAE131,"55.276546,38.282692",3550,244,12
1505066667,2017-09-10T18:04:27Z,UAE131,"55.269745,38.280163",3550,244,12
1505066661,2017-09-10T18:04:21Z,UAE131,"55.262859,38.277531",3550,244,12
1505066655,2017-09-10T18:04:15Z,UAE131,"55.256294,38.27512",3550,244,12
1505066649,2017-09-10T18:04:09Z,UAE131,"55.249878,38.272652",3550,244,13
1505066643,2017-09-10T18:04:03Z,UAE131,"55.242748,38.269291",3550,244,17
1505066637,2017-09-10T18:03:57Z,UAE131,"55.236465,38.265137",3550,245,26
1505066631,2017-09-10T18:03:51Z,UAE131,"55.230694,38.258972",3550,246,38
1505066625,2017-09-10T18:03:45Z,UAE131,"55.225113,38.24979",3550,246,48
1505066619,2017-09-10T18:03:39Z,UAE131,"55.221382,38.242161",3550,246,49
1505066613,2017-09-10T18:03:33Z,UAE131,"55.216965,38.232986",3550,246,49
1505066607,2017-09-10T18:03:27Z,UAE131,"55.21257,38.223778",3550,246,49
1505066601,2017-09-10T18:03:21Z,UAE131,"55.208115,38.214527",3550,246,49
1505066586,2017-09-10T18:03:06Z,UAE131,"55.197189,38.191868",3550,245,50
1505066575,2017-09-10T18:02:55Z,UAE131,"55.189774,38.174911",3575,242,57
1505066550,2017-09-10T18:02:30Z,UAE131,"55.184784,38.131042",3550,219,104
1505066541,2017-09-10T18:02:21Z,UAE131,"55.188095,38.111904",3550,219,107
1505066530,2017-09-10T18:02:10Z,UAE131,"55.192017,38.090569",3550,219,107
1505066494,2017-09-10T18:01:34Z,UAE131,"55.201813,38.036285",3550,218,107
1505066485,2017-09-10T18:01:25Z,UAE131,"55.205414,38.016273",3550,218,107
1505066474,2017-09-10T18:01:14Z,UAE131,"55.207882,38.002708",3550,217,107
1505066454,2017-09-10T18:00:54Z,UAE131,"55.214027,37.969166",3550,217,107
1505066448,2017-09-10T18:00:48Z,UAE131,"55.216122,37.957932",3550,217,107
1505066442,2017-09-10T18:00:42Z,UAE131,"55.217789,37.948959",3550,217,107
1505066436,2017-09-10T18:00:36Z,UAE131,"55.219799,37.938206",3550,217,108
1505066430,2017-09-10T18:00:30Z,UAE131,"55.221771,37.927711",3550,216,108
1505066424,2017-09-10T18:00:24Z,UAE131,"55.223522,37.918396",3550,215,108
1505066418,2017-09-10T18:00:18Z,UAE131,"55.225384,37.908409",3550,215,108
1505066412,2017-09-10T18:00:12Z,UAE131,"55.227154,37.89917",3550,215,108
1505066406,2017-09-10T18:00:06Z,UAE131,"55.229095,37.888695",3550,216,107
1505066399,2017-09-10T17:59:59Z,UAE131,"55.230877,37.878944",3550,216,107
1505066393,2017-09-10T17:59:53Z,UAE131,"55.232712,37.868984",3550,217,107
1505066385,2017-09-10T17:59:45Z,UAE131,"55.235458,37.853798",3550,217,107
1505066378,2017-09-10T17:59:38Z,UAE131,"55.237427,37.843216",3550,217,108
1505066370,2017-09-10T17:59:30Z,UAE131,"55.240631,37.826332",3550,216,110
1505066363,2017-09-10T17:59:23Z,UAE131,"55.242516,37.818188",3550,216,114
1505066357,2017-09-10T17:59:17Z,UAE131,"55.245117,37.809692",3550,213,124
1505066351,2017-09-10T17:59:11Z,UAE131,"55.24894,37.801624",3550,211,138
1505066345,2017-09-10T17:59:05Z,UAE131,"55.253723,37.795071",3550,210,146
1505066339,2017-09-10T17:58:59Z,UAE131,"55.258575,37.789722",3550,209,148
1505066333,2017-09-10T17:58:53Z,UAE131,"55.263428,37.784325",3550,210,147
1505066327,2017-09-10T17:58:47Z,UAE131,"55.268585,37.778736",3550,209,148
1505066321,2017-09-10T17:58:41Z,UAE131,"55.274033,37.772743",3550,210,147
1505066315,2017-09-10T17:58:35Z,UAE131,"55.278221,37.768082",3550,209,148
1505066309,2017-09-10T17:58:29Z,UAE131,"55.28376,37.762089",3550,209,148
1505066301,2017-09-10T17:58:21Z,UAE131,"55.290836,37.754349",3550,209,148
1505066295,2017-09-10T17:58:15Z,UAE131,"55.295609,37.749104",3550,209,148
1505066288,2017-09-10T17:58:08Z,UAE131,"55.300705,37.74353",3550,209,148
1505066279,2017-09-10T17:57:59Z,UAE131,"55.308388,37.735123",3550,210,147
1505066273,2017-09-10T17:57:53Z,UAE131,"55.313278,37.729717",3550,210,147
1505066265,2017-09-10T17:57:45Z,UAE131,"55.320419,37.721882",3550,210,148
1505066240,2017-09-10T17:57:20Z,UAE131,"55.342091,37.70924",3550,203,185
1505066231,2017-09-10T17:57:11Z,UAE131,"55.351124,37.711319",3550,203,188
1505066225,2017-09-10T17:57:05Z,UAE131,"55.355919,37.71257",3550,203,188
1505066219,2017-09-10T17:56:59Z,UAE131,"55.361755,37.714046",3550,203,188
1505066207,2017-09-10T17:56:47Z,UAE131,"55.372696,37.716873",3550,203,188
1505066201,2017-09-10T17:56:41Z,UAE131,"55.37817,37.718311",3550,203,188
1505066195,2017-09-10T17:56:35Z,UAE131,"55.385944,37.72031",3550,205,188
1505066186,2017-09-10T17:56:26Z,UAE131,"55.393112,37.722225",3550,205,188
1505066180,2017-09-10T17:56:20Z,UAE131,"55.398285,37.723576",3550,205,188
1505066174,2017-09-10T17:56:14Z,UAE131,"55.404751,37.725304",3550,205,188
1505066165,2017-09-10T17:56:05Z,UAE131,"55.412018,37.727211",3550,205,188
1505066159,2017-09-10T17:55:59Z,UAE131,"55.417648,37.728748",3550,204,189
1505066153,2017-09-10T17:55:53Z,UAE131,"55.423874,37.730686",3550,203,191
1505066147,2017-09-10T17:55:47Z,UAE131,"55.428726,37.732544",3550,202,192
1505066141,2017-09-10T17:55:41Z,UAE131,"55.434769,37.734886",3550,198,190
1505066135,2017-09-10T17:55:35Z,UAE131,"55.439667,37.73629",3550,194,188
1505066129,2017-09-10T17:55:29Z,UAE131,"55.445023,37.737621",3550,193,188
1505066123,2017-09-10T17:55:23Z,UAE131,"55.45015,37.738953",3575,195,188
1505066117,2017-09-10T17:55:17Z,UAE131,"55.455681,37.74044",3550,198,188
1505066111,2017-09-10T17:55:11Z,UAE131,"55.461182,37.741867",3525,199,188
1505066105,2017-09-10T17:55:05Z,UAE131,"55.466721,37.743282",3450,198,188
1505066099,2017-09-10T17:54:59Z,UAE131,"55.472076,37.744614",3275,191,188
1505066093,2017-09-10T17:54:53Z,UAE131,"55.477234,37.745934",3075,184,188
1505066087,2017-09-10T17:54:47Z,UAE131,"55.482029,37.747223",2900,179,189
1505066081,2017-09-10T17:54:41Z,UAE131,"55.486954,37.748775",2750,169,192
1505066075,2017-09-10T17:54:35Z,UAE131,"55.491119,37.750771",2650,157,199
1505066069,2017-09-10T17:54:29Z,UAE131,"55.495155,37.753914",2500,148,208
1505066063,2017-09-10T17:54:23Z,UAE131,"55.498581,37.757347",2325,145,209
1505066057,2017-09-10T17:54:17Z,UAE131,"55.502243,37.761009",2150,142,208
1505066034,2017-09-10T17:53:54Z,UAE131,"55.515976,37.767918",1550,146,176
1505066025,2017-09-10T17:53:45Z,UAE131,"55.523365,37.767906",1125,154,188
1505066019,2017-09-10T17:53:39Z,UAE131,"55.527603,37.769794",975,157,201
1505066012,2017-09-10T17:53:32Z,UAE131,"55.532257,37.773743",1075,156,211
1505066005,2017-09-10T17:53:25Z,UAE131,"55.536346,37.77932",1275,157,221
1505065999,2017-09-10T17:53:19Z,UAE131,"55.539001,37.783482",1450,157,221
1505065992,2017-09-10T17:53:12Z,UAE131,"55.542572,37.789223",1675,155,222
1505065985,2017-09-10T17:53:05Z,UAE131,"55.546967,37.796463",1950,152,223
1505065977,2017-09-10T17:52:57Z,UAE131,"55.5504,37.802292",2150,149,224
1505065969,2017-09-10T17:52:49Z,UAE131,"55.554092,37.808762",2275,144,224
1505065961,2017-09-10T17:52:41Z,UAE131,"55.557396,37.814426",2400,142,224
1505065954,2017-09-10T17:52:34Z,UAE131,"55.561249,37.821018",2525,147,224
1505065946,2017-09-10T17:52:26Z,UAE131,"55.564659,37.827129",2625,152,226
1505065934,2017-09-10T17:52:14Z,UAE131,"55.570572,37.839661",2875,158,232
1505065924,2017-09-10T17:52:04Z,UAE131,"55.57518,37.85022",3050,161,232
1505065917,2017-09-10T17:51:57Z,UAE131,"55.579056,37.858887",3175,162,232
1505065908,2017-09-10T17:51:48Z,UAE131,"55.582024,37.865669",3250,161,231
1505065898,2017-09-10T17:51:38Z,UAE131,"55.586792,37.87645",3250,161,231
1505065889,2017-09-10T17:51:29Z,UAE131,"55.591507,37.88702",3250,161,231
1505065878,2017-09-10T17:51:18Z,UAE131,"55.596035,37.897079",3275,162,231
1505065868,2017-09-10T17:51:08Z,UAE131,"55.600845,37.907742",3400,164,231
1505065858,2017-09-10T17:50:58Z,UAE131,"55.605576,37.91811",3525,167,230
1505065851,2017-09-10T17:50:51Z,UAE131,"55.609131,37.925804",3625,169,230
1505065837,2017-09-10T17:50:37Z,UAE131,"55.61694,37.94257",3775,178,231
1505065826,2017-09-10T17:50:26Z,UAE131,"55.621899,37.953098",3900,181,231